Flag Weather past 2 weeks in Macon, Georgia, U.S.A.

Now
57 °F

Overcast.


Feels Like: 56 °F
Forecast: 34 / 54 °F
Wind: 7 mph from West

Location: Middle Georgia Regional Airport

Current Time: Oct 31, 2014 at 8:30:21 PM

Latest Report: Oct 31, 2014 at 7:53 PM


Visibility: 10 mi

Pressure: 29.88 "Hg

Humidity: 60%

Dew point: 43 °F

Location of MaconLocation

Historic Weather in Macon — Graph

°F

Macon temperature yesterday

Maximum temperature yesterday: 71 °F (at 3:53 PM)
Minimum temperature yesterday: 47 °F (at 7:53 AM)
Average temperature yesterday: 57 °F

Past Weeks' High & Low Weather Summary

 TemperatureHumidityPressure
High87 °F (Oct 26, 3:53 PM)100% (Oct 16, 11:53 PM)30.16 "Hg (Oct 16, 11:53 PM)
Low38 °F (Oct 23, 5:53 AM)28% (Oct 17, 3:53 PM)29.83 "Hg (Oct 31, 3:53 PM)
Average60 °F75%30.01 "Hg
* Reported Oct 16 6:53 PM — Oct 31 6:53 PM, Macon, Weather by CustomWeather, © 2014

Note: Actual official high and low records may vary slightly from our data, if they occured in-between our weather recording intervals... More about our weather records

Advertising

Macon weather history for previous 24 hours

 ConditionsComfort  
Time TempWeatherWind HumidityBarometerVisibility
6:53 PM
Oct 31
59 °FPassing clouds.9 mph54%29.87 "Hg10 mi
5:53 PM64 °FPartly sunny.12 mph41%29.85 "Hg10 mi
4:53 PM65 °FOvercast.15 mph42%29.84 "Hg10 mi
3:53 PM69 °FPartly sunny.16 mph36%29.83 "Hg10 mi
2:53 PM71 °FSunny.9 mph31%29.83 "Hg10 mi
1:53 PM68 °FSunny.10 mph36%29.85 "Hg10 mi
12:53 PM66 °FSunny.7 mph40%29.89 "Hg10 mi
11:53 AM62 °FSunny.3 mph50%29.91 "Hg10 mi
10:53 AM57 °FSunny.3 mph58%29.93 "Hg10 mi
9:53 AM52 °FSunny.7 mph75%29.94 "Hg10 mi
8:53 AM45 °FSunny.3 mph90%29.94 "Hg10 mi
7:53 AM40 °FClear.No wind97%29.93 "Hg10 mi
6:53 AM40 °FClear.No wind100%29.92 "Hg10 mi
5:53 AM41 °FClear.No wind96%29.92 "Hg10 mi
4:53 AM43 °FClear.No wind93%29.92 "Hg10 mi
3:53 AM44 °FClear.No wind89%29.92 "Hg10 mi
2:53 AM45 °FClear.No wind90%29.93 "Hg10 mi
1:53 AM45 °FClear.No wind90%29.94 "Hg10 mi
12:53 AM45 °FClear.6 mph93%29.96 "Hg10 mi
11:53 PM
Oct 30
47 °FClear.3 mph93%29.96 "Hg10 mi
10:53 PM48 °FClear.5 mph93%29.97 "Hg10 mi
9:53 PM50 °FClear.5 mph93%29.96 "Hg10 mi
8:53 PM52 °FClear.No wind83%29.96 "Hg10 mi
Weather by CustomWeather, © 2014

See weather overviewHow to use our weather pages